Weather History for Buffalo, SD

Change the Weather History Date:

Friday, November 1, 2013

  Actual Average Record
Temperature  
Mean Temperature 41 °F 39 °F  
Max Temperature 51 °F 50 °F 71 °F (2008)
Min Temperature 30 °F 28 °F 7 °F (2002)
Degree Days  
Heating Degree Days 24 26  
Month to date heating degree days 24 26  
Since 1 July heating degree days 854 927  
Cooling Degree Days 0 0  
Month to date cooling degree days 0 0  
Year to date cooling degree days 587 513  
Moisture  
Dew Point 29 °F    
Average Humidity 66    
Maximum Humidity 92    
Minimum Humidity 39    
Precipitation  
Precipitation 0.00 in 0.02 in 1.16 in (2000)
Month to date precipitation 0.00 0.02  
Year to date precipitation 12.15 13.94  
Sea Level Pressure  
Sea Level Pressure 29.93 in    
Wind  
Wind Speed 22 mph (WNW)    
Max Wind Speed 44 mph    
Max Gust Speed 54 mph    
T = Trace of Precipitation, MM = Missing Value Source: NWS Daily Summary

Daily Weather History Graph

Daily Weather History Graph

Search for Another Location

Airport:

Trip Planner

Search our weather history database for the weather conditions in past years. The results will help you decide how hot, cold, wet, or windy it might be!

Date:

Astronomy

Nov. 01, 2013 Rise Set
Actual Time 7:34 AM MDT 5:40 PM MDT
Civil Twilight 7:03 AM MDT 6:11 PM MDT
Nautical Twilight 6:28 AM MDT 6:46 PM MDT
Astronomical Twilight 5:53 AM MDT 7:21 PM MDT
Moon 5:23 AM MDT (11/1) 4:38 PM MDT (11/1)
Length of Visible Light 11h 08m
Length of Day
10h 06m
Waning Crescent, 4% of the Moon is Illuminated
Nov 1
Waning Crescent
Nov 3
New
Nov 9
First Quarter
Nov 17
Full
Nov 25
Last Quarter

Hourly Weather History & Observations

Time (MDT) Temp. Windchill Dew Point Humidity Pressure Visibility Wind Dir Wind Speed Gust Speed Precip Events Conditions
12:56 AM 39.0 °F 29.9 °F 36.0 °F 89% 29.74 in - WNW 17.3 mph - N/A   Unknown
1:56 AM 36.0 °F 26.7 °F 34.0 °F 93% 29.76 in - West 15.0 mph - N/A   Unknown
2:56 AM 39.9 °F 31.1 °F 35.1 °F 83% 29.76 in - WNW 17.3 mph - N/A   Unknown
3:56 AM 39.9 °F 29.5 °F 34.0 °F 79% 29.78 in - WNW 24.2 mph 29.9 mph N/A   Unknown
4:56 AM 41.0 °F 29.0 °F 35.1 °F 79% 29.80 in - NW 35.7 mph 43.7 mph N/A   Unknown
5:56 AM 37.0 °F 27.4 °F 35.1 °F 93% 29.82 in - WNW 17.3 mph - N/A   Unknown
6:56 AM 37.0 °F 25.9 °F 34.0 °F 89% 29.82 in - West 23.0 mph 32.2 mph N/A   Unknown
7:56 AM 37.9 °F 25.7 °F 32.0 °F 79% 29.84 in - WNW 29.9 mph 38.0 mph N/A   Unknown
8:56 AM 39.0 °F 26.8 °F 30.0 °F 70% 29.88 in - NW 32.2 mph 43.7 mph N/A   Unknown
9:56 AM 39.9 °F 27.5 °F 30.0 °F 68% 29.91 in - NW 35.7 mph 49.5 mph N/A   Unknown
10:56 AM 41.0 °F 29.3 °F 30.0 °F 65% 29.94 in - NW 33.4 mph 48.3 mph N/A   Unknown
11:56 AM 44.1 °F 34.2 °F 30.0 °F 58% 29.96 in - NW 28.8 mph 44.9 mph N/A   Unknown
12:56 PM 46.0 °F 35.9 °F 28.0 °F 50% 29.96 in - NW 35.7 mph 44.9 mph N/A   Unknown
1:56 PM 48.0 °F - 27.0 °F 44% 29.96 in - NW 33.4 mph 44.9 mph N/A   Unknown
2:56 PM 50.0 °F - 26.1 °F 39% 29.96 in - NW 34.5 mph 41.4 mph N/A   Unknown
3:56 PM 48.9 °F - 26.1 °F 41% 29.99 in - NW 27.6 mph 35.7 mph N/A   Unknown
4:56 PM 48.0 °F - 26.1 °F 42% 30.00 in - NW 20.7 mph - N/A   Unknown
5:56 PM 42.1 °F 34.9 °F 27.0 °F 55% 30.04 in - WNW 13.8 mph - N/A   Unknown
6:56 PM 37.0 °F 28.5 °F 26.1 °F 65% 30.07 in - WNW 13.8 mph - N/A   Unknown
7:56 PM 35.1 °F 27.4 °F 25.0 °F 67% 30.07 in - WNW 10.4 mph - N/A   Unknown
8:56 PM 33.1 °F 24.9 °F 25.0 °F 72% 30.08 in - WNW 10.4 mph - N/A   Unknown
9:56 PM 30.0 °F 23.2 °F 24.1 °F 79% 30.09 in - West 6.9 mph - N/A   Unknown
10:56 PM 33.1 °F 27.7 °F 24.1 °F 70% 30.09 in - West 5.8 mph - N/A   Unknown
11:56 PM 32.0 °F 25.6 °F 24.1 °F 73% 30.08 in - West 6.9 mph - N/A   Unknown